STARLINK-31741, 59550

Orbit data source: Space-Track

STARLINK-31741, 59550 is a payload satellite owned by SpaceX/Seattle (US) in LEO that was launched on Thu, 18 Apr 2024 UTC via an FALCON 9 launch vehicle from the Air Force Eastern Test Range (AFETR). Payload-class satellites include a variety of spacecraft equipped with specific instruments for various scientific and technological missions. These include communications satellites like Starlink; space stations such as the ISS; scientific satellites like the Hubble; Earth observation satellites from companies like Planet Labs, Umbra, and HawkEye 360; GPS; miniature CubeSats for education and research; and military/defense satellites.

Loading next visibility...
Identifier
59550, 2024-074S
Orbit
LEO
Country
Flag of USUS
Related business
Manufacturer
SpaceX/Seattle
Mission
Operational Commercial Communications
Bus & Motor
STARLINK V2M, Unknown motor
Mass
730 kg wet, ~700 kg dry
Launch date (UTC)
2024-04-18 (2 years ago)
Launch vehicle
FALCON 9
Launch site
Air Force Eastern Test Range (AFETR)
Object type
Payload
Rocket body
Debris
Shape & HBR
Box + 2 Pan, 17.7 m
Radar Cross Section
33.884 m², Large (>1 m²)

Expand to show TLE details & history
Last TLE update: 2 days ago

TLE from 2 days ago
0 STARLINK-31741
1 59550U 24074S   26171.25294293  .00000081  00000-0  12456-4 0  9995
2 59550  43.0037 123.9931 0001059 271.4832  88.5898 15.27575763121708
Epoch: 2026-06-20T06:04Z
TLE epoch observation values (Epoch: 2026-06-20T06:04:14.269Z)
Latitude
-0.00003°
Longitude
124.46339°
Altitude
482.82 km
Speed
7.626 km/s
True Right ascension
08h 15m 58s
True Declination
0° 00' 00"
Sunlit
Object was in daylight at epoch
Visualization orbit readout
Latitude
Unknown
Longitude
Unknown
Altitude
Unknown
Speed
Unknown
Apparent Right ascension
Unknown
Apparent Declination
Unknown
Sunlit
N/A
Visualization observer readout
Local Sidereal Time
21:28:38
Azimuth
Unknown
Elevation
Unknown
Doppler factor
Unknown
Orbital elements
Apogee altitude
485.733 km
Perigee altitude
484.28 km
Semi-major axis
6,863.143 km
Eccentricity
0.00011
Inclination
43.0037°
RAAN
123.9931°
Arg. of periapsis
271.4832°
True anomaly
88.60193°
Mean anomaly
88.5898°
Eccentric anomaly
88.59587°
Mean motion
3.81732 °/min
Orbital period
94.31 mins
BSTAR
0.000012456
Loading maneuver chart data...
Computing Atmospheric mass density...
Loading historical data...
Loading historical data...
Loading historical data...
Loading historical data...
Loading historical data...
Loading historical data...
Loading historical data...

Documentation

Showing up to 5 results
|